Weather observations for the past three days for
Winter Havens Gilbert Airport
Imperial (Metric)
Date Time (edt) Wind (mph) Vis. (mi.) Weather Sky Cond. Temperature (ºF) Relative Humidity Wind Chill (°F) Heat Index (°F) Pressure Precipitation (in)
Air Dwpt 6 hour altimeter (in) sea level (mb) 1 hr 3 hr 6 hr
Max. Min.
14 07:53 Calm 10.00 Overcast FEW005 BKN010 OVC029 78.1 75.9 78.1 75 93% 81 29.93 1013.2
14 06:53 Calm 10.00 Overcast OVC006 75.9 75 97% 75 29.91 1012.6
14 05:53 N 3 10.00 A Few Clouds FEW006 75.9 75 97% 75 29.89 1011.9
14 04:53 Calm 10.00 Fair CLR 75 75 100% 72 29.86 1011.0
14 03:53 Calm 10.00 Fair CLR 75.9 75 97% 75 29.86 1010.9
14 02:53 NW 3 10.00 A Few Clouds FEW010 75.9 73.9 94% 75 29.87 1011.0
14 01:53 SE 6 10.00 Fair CLR 75.9 75 75.9 73.9 97% 75 29.88 1011.5
14 00:53 N 7 10.00 Fair CLR 75 73.9 96% 73 29.91 1012.6
13 23:53 SE 3 10.00 Fair CLR 75 73.9 96% 73 29.91 1012.6
13 22:53 NE 3 10.00 Fair CLR 75 73.9 96% 73 29.9 1012.4
13 21:53 Calm 10.00 Fair CLR 73.9 72 94% 29.87 1011.3
13 20:53 SE 3 10.00 Light Rain FEW050 SCT095 BKN120 73.9 72 94% 29.89 1011.9
13 19:53 W 8 9.00 Thunderstorm Light Rain SCT090 BKN110 73.9 72 95 73.9 94% 29.89 1011.8 0.11 0.15
13 18:53 NE 13 G 26 4.00 Thunderstorm Rain Fog/Mist SCT034 BKN065 OVC080 75 71.1 88% 75 29.89 1012.1 0.04
13 17:53 S 12 10.00 Partly Cloudy SCT055 91 75 59% 102 29.84 1010.3
13 16:53 S 13 G 26 10.00 Mostly Cloudy SCT041 BKN050 91.9 75.9 60% 104 29.84 1010.3
13 15:53 Vrbl 6 10.00 A Few Clouds FEW042 93 73 52% 102 29.86 1010.7
13 14:53 Vrbl 5 10.00 Fair CLR 91.9 75 58% 103 29.88 1011.4
13 13:53 Vrbl 5 10.00 Mostly Cloudy BKN036 90 73.9 91.9 78.1 59% 99 29.89 1011.7
13 12:53 Calm 10.00 Mostly Cloudy FEW029 SCT034 BKN110 89.1 75 63% 99 29.9 1012.1
13 11:53 NW 5 10.00 Partly Cloudy SCT100 88 75.9 68% 99 29.89 1012.1
13 10:53 Calm 10.00 Overcast SCT021 BKN026 OVC033 84.9 75 72% 93 29.9 1012.3
13 09:53 N 6 10.00 Mostly Cloudy BKN015 84 75.9 77% 93 29.91 1012.5
13 08:53 SW 5 10.00 Overcast BKN010 OVC100 80.1 75.9 87% 85 29.89 1012.1
13 07:53 S 8 10.00 Mostly Cloudy SCT010 BKN110 78.1 75 78.1 77 90% 81 29.89 1011.9 0.02
13 06:53 S 7 10.00 Fair CLR 77 75 94% 78 29.88 1011.5
13 05:53 S 8 10.00 Mostly Cloudy BKN007 77 75 94% 78 29.87 1011.1
13 04:53 S 10 10.00 Overcast OVC007 77 75.9 96% 78 29.87 1011.0 0.02
13 03:53 S 8 10.00 Mostly Cloudy BKN009 78.1 75.9 93% 81 29.87 1011.1
13 01:53 S 7 10.00 Overcast OVC007 77 75 80.1 75.9 94% 78 29.89 1012.0
13 00:53 S 3 10.00 A Few Clouds FEW011 75.9 73 91% 76 29.89 1011.9
12 23:53 S 8 10.00 Fair CLR 78.1 72 82% 80 29.89 1011.9
12 22:53 S 6 10.00 Fair CLR 78.1 73 85% 81 29.88 1011.7
12 21:53 SE 6 10.00 Overcast FEW018 OVC037 80.1 72 76% 84 29.9 1012.4
12 20:53 SW 3 9.00 Overcast OVC039 79 71.1 77% 82 29.89 1011.9
12 19:53 S 7 10.00 Thunderstorm in Vicinity FEW070 80.1 71.1 91 80.1 74% 84 29.87 1011.4
12 18:53 SE 6 10.00 Overcast BKN034 OVC043 82.9 73 72% 89 29.86 1010.9
12 17:53 E 13 10.00 A Few Clouds FEW040 84.9 75 72% 93 29.86 1010.8
12 16:53 SW 12 10.00 Thunderstorm in Vicinity FEW027 91 78.1 66% 106 29.85 1010.7
12 15:53 SW 7 10.00 Mostly Cloudy SCT027 BKN036 BKN110 91 78.1 66% 106 29.86 1010.9
12 14:53 SE 7 10.00 Mostly Cloudy BKN031 BKN080 90 77 66% 103 29.88 1011.5
12 13:53 Calm 10.00 Overcast FEW029 OVC035 86 77 90 75.9 75% 97 29.89 1011.8
12 12:53 Vrbl 3 10.00 Overcast BKN029 BKN037 OVC070 87.1 77 72% 99 29.9 1012.3
12 11:53 SW 7 10.00 Mostly Cloudy SCT022 BKN027 88 78.1 73% 102 29.9 1012.1
12 10:53 S 12 10.00 Partly Cloudy SCT016 84.9 77 77% 95 29.9 1012.2
12 09:53 S 9 10.00 Overcast BKN013 BKN020 OVC024 81 75.9 85% 87 29.92 1012.8
12 07:53 S 9 10.00 Overcast OVC021 75.9 73.9 77 71.1 94% 75 29.9 1012.3 2.69
12 06:53 S 10 G 23 10.00 Overcast FEW006 OVC015 73.9 73 97% 29.89 1012.0
12 05:53 SE 12 10.00 Overcast FEW007 BKN018 OVC047 75.9 75 97% 75 29.88 1011.7 0.02
12 04:53 E 10 9.00 Light Rain FEW012 BKN021 OVC027 73 72 96% 29.87 1011.3 1.04 2.67
12 03:53 S 14 G 20 1.75 Thunderstorm Heavy Rain Fog/Mist OVC019 77 75 94% 78 29.86 1011.0 1.35
12 02:53 S 7 3.00 Thunderstorm Heavy Rain Fog/Mist FEW008 BKN046 OVC070 75.9 75 97% 75 29.85 1010.6 0.28
12 01:53 S 7 5.00 Rain Fog/Mist FEW006 SCT036 OVC090 75.9 75 79 75.9 97% 75 29.88 1011.7 0.21 0.21
12 00:53 S 10 10.00 Overcast SCT010 BKN014 OVC120 75.9 73 91% 76 29.89 1012.0
11 23:53 S 14 G 23 10.00 Partly Cloudy SCT014 77 73.9 90% 78 29.9 1012.3
11 22:53 S 12 10.00 Mostly Cloudy FEW025 BKN100 77 75 94% 78 29.89 1012.0
11 21:53 S 10 10.00 Light Rain FEW009 BKN028 OVC100 77 75 94% 78 29.88 1011.6
11 20:53 SE 10 10.00 Mostly Cloudy SCT021 BKN044 BKN060 79 73.9 85% 83 29.88 1011.5
11 19:53 S 8 G 20 10.00 Mostly Cloudy SCT017 BKN090 79 73.9 82.9 79 85% 83 29.88 1011.5 0.03
11 18:53 Calm 10.00 Partly Cloudy SCT016 80.1 75 85% 85 29.87 1011.1
11 17:53 S 14 G 22 10.00 A Few Clouds FEW017 FEW095 FEW120 80.1 75 85% 85 29.86 1010.8 0.01
11 16:53 S 10 10.00 Light Rain FEW090 BKN110 80.1 75.9 87% 85 29.85 1010.6 0.01 0.02
11 15:53 S 10 10.00 Light Rain BKN110 80.1 75 85% 85 29.87 1011.3 0.01
11 14:53 SW 10 10.00 Light Rain SCT030 BKN060 OVC090 80.1 75 85% 85 29.88 1011.5
11 13:53 SW 12 G 21 10.00 Mostly Cloudy SCT021 SCT026 BKN034 82.9 75.9 88 79 79% 91 29.9 1012.2
11 12:53 SW 24 G 32 10.00 Mostly Cloudy and Breezy FEW024 SCT030 BKN041 84.9 75 72% 93 29.87 1011.4
11 11:53 SW 9 10.00 Mostly Cloudy SCT023 BKN090 87.1 75.9 70% 98 29.88 1011.5
11 10:53 S 9 7.00 Light Rain SCT020 BKN033 OVC045 82.9 77 82% 92 29.89 1012.0
11 09:53 SE 14 10.00 Overcast BKN018 OVC023 84 75.9 77% 93 29.89 1011.9
11 08:53 S 8 10.00 Mostly Cloudy SCT016 BKN024 BKN031 81 75 82% 87 29.89 1011.7
Date Time (edt) Wind (mph) Vis. (mi.) Weather Sky Cond. Air Dwpt Max. Min. Relative Humidity Wind Chill (°F) Heat Index (°F) altimeter (in) sea level (mb) 1 hr 3 hr 6 hr
6 hour
Temperature (ºF) Pressure Precipitation (in)